Torna al catalogo

CZ-6A DEB

AttivoPO
NORAD 60902·DEBRIS·🇨🇳 China

Lanciato Aug 6, 2024 da Taiyuan Satellite Launch Center

Loading…

Prossimi Passaggi (prossime 24 ore)

TLE

AggiornatoSource: Space-Track

Epoca: Sep 14, 2026, 10:45 UTC

1 60902U 24140LH  26257.44859240  .00001047  00000-0  21796-3 0  9996
2 60902  89.0274 262.5803 0113643 320.5714  38.7264 14.55299089110009

Traccia CZ-6A DEB in tempo reale con AllMySat

Download on the App Store